Location: Rounton
(54.4000°N, 1.3500°W)
Time: 23:09:59
(UTC+01:00)

Vanguard 1 - Pass Details

Date: 24 February 2024
Orbit: 653 x 3825 km, 34.2° (Epoch: 21 April)

Event Time Altitude Azimuth Distance (km) Brightness Sun altitude
Rises 01:42:29 0° 272° (W) 7,395 14.3 -42.3°
Enters shadow 01:46:14 - 266° (W) 6,913 14.1 -42.0°
Reaches altitude 10° 01:48:21 10° 263° (W) 6,663 - -41.9°
Maximum altitude 02:05:05 28° 216° (SW) 5,526 - -40.5°
Drops below altitude 10° 02:21:04 10° 168° (SSE) 6,305 - -39.1°
Exits shadow 02:22:55 - 164° (SSE) 6,505 14.0 -38.9°
Sets 02:26:30 0° 157° (SSE) 6,942 14.2 -38.6°
